Total_Precipitation_Accumulation
3.97 3.56 3.58 3.08 2.78 2.86 2.35 2.35 2.31 2.34 2.35 2.56 2.76 2.79 2.71 2.59 3.57 4.73 5.06 3.68 6.23 5.98 3.32 1.73 1.20 1.04 0.87 1.29 2.24 2.25 2.37 2.72 3.26 4.17 4.73 3.69 2.28 1.24 0.80 0.68 1.01 1.07 1.50 1.63 1.62 2.37 1.79 0.24 0.34 0.99 1.68 1.01 0.85 0.75
4.18 3.62 3.63 3.24 2.85 2.79 2.30 2.36 2.33 2.25 2.19 2.22 2.65 2.68 2.84 2.79 3.67 4.42 5.02 3.82 4.77 6.19 4.30 1.96 1.41 1.04 0.97 1.10 1.78 2.57 2.68 2.12 2.26 3.01 3.41 2.97 2.58 1.82 1.21 1.11 1.00 1.34 1.10 1.41 1.28 1.23 0.68 0.50 0.57 0.45 0.27 0.23 0.23 0.51
4.12 3.89 4.02 3.28 2.96 2.78 2.39 2.30 2.21 2.19 2.29 2.22 2.65 2.88 2.75 2.99 3.63 4.36 4.44 3.88 6.34 8.18 5.19 2.60 1.66 0.88 0.65 0.85 1.47 2.89 2.86 2.05 2.17 2.73 3.39 3.84 3.58 2.36 1.77 1.28 1.09 1.19 0.89 1.62 1.57 0.91 0.40 0.40 0.39 0.22 0.26 0.35 0.27 0.38
4.10 3.83 3.79 3.27 3.06 2.62 2.17 2.15 2.11 2.17 2.21 2.56 3.12 3.29 3.05 3.39 3.93 4.55 4.59 4.23 5.20 6.25 5.49 3.00 1.31 0.86 0.52 0.48 0.92 1.37 1.62 2.04 2.83 3.76 4.78 4.91 3.72 2.34 1.94 1.38 1.13 0.86 1.23 1.83 1.82 1.18 0.76 0.50 0.49 0.58 0.48 0.46 0.46 0.45
3.82 3.70 3.62 3.16 3.33 2.81 2.34 2.32 2.36 2.26 2.31 2.72 3.51 3.39 3.36 3.44 4.50 5.34 4.85 4.50 3.61 4.36 4.81 2.57 1.42 1.09 0.84 0.57 0.67 0.95 1.53 2.22 3.15 4.51 5.00 3.61 2.06 1.97 1.69 1.48 1.22 0.46 1.09 1.65 2.35 1.69 1.72 1.24 0.86 0.82 0.86 0.53 0.28 0.31
3.58 3.76 3.45 2.95 2.79 2.54 2.65 2.69 2.54 2.26 2.32 2.85 3.32 3.43 3.23 3.73 6.01 8.85 11.12 6.78 3.84 3.28 4.76 3.45 1.98 1.43 1.13 0.98 0.95 1.27 1.48 2.16 3.28 3.88 3.67 2.44 1.29 1.83 2.80 1.54 0.39 0.25 0.39 0.72 1.41 1.67 1.59 1.47 0.95 0.72 0.66 0.73 0.59 0.51
3.27 3.16 2.84 2.43 2.37 2.34 2.69 2.55 2.43 2.49 2.79 3.09 3.07 3.59 3.57 4.42 6.98 7.93 5.82 3.97 2.94 3.65 6.09 3.89 2.23 1.70 1.54 1.46 1.57 1.59 1.91 2.16 2.65 3.31 2.83 1.68 0.99 2.00 3.08 1.57 0.30 0.42 0.54 0.69 0.81 1.06 1.13 1.05 0.79 0.41 0.45 0.54 0.56 0.55
2.87 2.63 2.29 2.19 2.38 2.46 2.29 2.22 2.37 2.78 3.20 3.00 3.31 4.08 5.05 6.74 7.85 5.31 2.16 1.71 2.70 4.47 4.41 3.63 2.45 2.45 1.98 2.13 1.97 1.84 2.14 2.57 3.08 2.88 2.10 1.44 1.67 2.43 2.62 0.45 0.13 0.31 0.49 0.55 0.48 0.57 0.81 0.80 1.06 0.75 0.52 0.66 0.81 0.59
2.51 2.16 1.81 1.85 2.48 2.76 2.38 2.30 2.65 3.02 3.62 3.69 4.59 6.42 9.25 9.44 8.02 4.73 3.01 2.82 4.03 5.57 4.60 2.16 1.57 2.51 2.14 2.79 2.38 2.40 2.46 3.30 2.74 2.16 1.30 1.62 2.10 2.63 1.12 0.49 0.51 0.44 0.74 0.83 0.71 0.63 0.69 0.84 0.98 1.01 0.69 0.63 0.73 0.85
2.24 1.60 1.51 1.63 2.13 2.63 2.70 2.70 3.04 3.85 4.59 5.47 6.95 9.28 10.53 6.69 4.22 4.45 6.60 7.19 6.83 5.47 3.31 1.61 0.80 1.99 2.38 2.61 2.78 2.98 2.69 2.74 2.69 1.36 1.25 1.95 1.44 0.78 0.47 0.65 0.89 0.95 0.97 1.08 1.25 1.18 0.91 0.84 0.71 0.81 0.67 0.50 0.57 0.72
1.86 1.43 1.32 1.58 1.99 2.21 2.31 2.46 3.07 3.97 5.31 6.80 7.21 7.37 6.58 4.59 4.54 5.71 6.05 4.97 3.62 2.44 1.44 1.08 0.88 1.43 1.94 2.78 2.84 2.84 2.90 2.13 1.78 1.31 1.47 1.52 0.89 0.97 0.83 1.04 1.15 1.23 1.26 1.30 1.54 1.72 1.18 0.81 0.61 0.69 0.67 0.60 0.64 0.80
1.68 1.32 1.35 1.43 1.64 1.88 1.92 2.23 2.78 2.87 3.75 3.89 4.05 4.69 5.31 4.86 4.90 4.44 3.43 2.03 1.25 0.83 0.70 0.80 0.91 1.21 2.00 2.85 3.39 3.51 3.05 2.47 1.83 1.54 2.24 1.31 1.05 0.85 0.89 0.99 0.76 0.99 1.20 1.34 1.62 1.90 1.45 0.97 0.82 0.78 0.77 0.90 0.91 0.99
1.57 1.28 1.17 1.37 1.44 1.46 1.47 1.88 1.89 1.82 2.34 3.13 3.76 5.11 5.33 4.36 3.84 2.58 1.46 0.78 0.65 0.53 0.57 0.72 1.29 1.47 1.66 2.25 3.36 2.73 2.58 2.02 1.88 2.34 1.46 0.93 0.61 0.41 0.47 0.59 0.75 0.90 1.02 1.18 1.36 1.71 1.51 1.54 1.59 1.37 1.55 1.71 1.62 1.73
1.26 1.11 1.08 1.33 1.33 1.48 1.66 1.77 1.88 2.59 3.09 3.63 3.65 3.73 3.12 2.49 1.69 1.28 0.80 0.68 0.63 0.55 0.67 0.96 1.44 1.44 1.46 1.98 2.61 2.36 1.94 1.58 1.91 1.77 1.08 1.07 1.02 0.78 0.59 0.61 0.68 0.88 0.92 1.08 1.49 1.51 1.50 1.48 1.91 2.03 1.97 2.00 1.63 1.74
1.02 1.19 1.46 1.69 1.64 1.70 1.96 1.64 1.91 1.97 2.09 2.39 2.40 2.16 1.46 1.63 1.20 0.99 0.88 0.84 0.92 1.04 1.35 1.87 2.09 1.75 1.66 1.97 1.65 1.61 1.58 1.31 0.97 1.02 1.52 1.46 1.02 0.75 0.76 0.74 0.77 0.87 0.93 1.06 1.12 1.12 1.22 1.06 0.91 1.39 1.53 1.35 0.99 1.07
1.47 1.68 1.56 1.40 1.35 1.65 1.69 1.58 1.83 1.82 1.73 1.33 1.44 1.33 1.08 1.26 1.22 1.08 1.13 1.19 1.13 1.60 1.78 2.28 2.25 2.12 1.92 1.38 1.29 0.96 0.78 0.83 1.20 1.14 1.04 0.75 0.72 0.82 0.90 0.95 1.05 1.08 0.92 0.93 0.87 0.73 0.74 0.65 0.51 0.72 0.80 0.69 0.68 0.53
1.46 1.34 1.29 1.14 1.24 1.37 1.41 1.72 1.97 1.94 1.44 1.09 1.07 1.02 1.07 1.24 1.26 1.21 1.16 1.06 1.16 1.59 1.58 1.53 1.42 1.41 1.41 1.11 0.97 0.94 1.18 1.32 1.36 1.05 0.69 0.57 0.67 0.86 0.95 0.99 1.07 1.02 0.79 0.67 0.61 0.58 0.63 0.59 0.46 0.36 0.47 0.64 0.49 0.47
1.56 1.16 1.11 1.06 1.33 1.81 2.09 1.88 1.68 1.26 1.02 0.91 0.97 1.16 0.96 1.24 1.26 1.11 1.13 1.10 1.56 1.56 1.25 1.43 1.00 0.83 0.77 0.78 0.99 1.32 1.23 1.09 0.86 0.81 0.92 0.96 0.89 0.95 0.94 0.95 1.00 0.84 0.71 0.74 0.67 0.67 0.66 0.62 0.51 0.58 0.54 0.55 0.42 0.43
1.19 1.14 1.14 1.16 1.38 1.52 1.72 1.41 0.93 1.18 1.08 0.84 0.88 0.77 0.70 0.86 0.91 1.03 1.01 1.03 1.36 1.45 1.48 1.34 1.19 0.91 0.94 1.10 1.20 1.20 1.16 0.94 0.89 1.00 1.08 1.13 1.04 0.97 1.02 0.98 0.93 0.89 0.78 0.83 0.72 0.66 0.67 0.63 0.58 0.54 0.50 0.45 0.44 0.44
1.46 1.36 1.05 1.01 1.09 1.21 1.10 0.94 0.40 0.41 0.64 0.71 0.71 0.48 0.42 0.61 0.47 0.38 0.44 0.63 0.95 1.67 1.94 1.49 1.35 1.43 1.49 1.48 1.31 1.27 1.35 1.06 0.77 0.72 0.98 1.16 1.17 0.91 0.96 0.82 0.80 0.78 0.67 0.68 0.65 0.59 0.51 0.46 0.48 0.44 0.39 0.36 0.37 0.38
1.25 1.33 0.96 0.99 0.92 0.91 0.81 0.89 0.79 0.30 0.32 0.44 0.40 0.25 0.34 0.18 0.12 0.13 0.14 0.26 0.97 1.52 1.65 1.57 1.44 1.50 1.54 1.52 1.23 1.02 1.06 0.91 0.86 0.68 0.79 1.00 1.08 0.75 0.79 0.84 0.72 0.63 0.57 0.61 0.57 0.57 0.46 0.46 0.42 0.36 0.42 0.44 0.40 0.42
0.82 0.90 1.08 0.82 0.84 0.65 0.47 0.14 0.49 0.57 0.34 0.27 0.25 0.24 0.36 0.34 0.25 0.19 0.22 0.48 0.90 1.01 1.09 1.15 1.13 1.04 0.96 1.07 1.17 1.01 1.03 0.77 0.72 0.64 0.69 0.67 0.76 0.79 0.85 0.88 0.67 0.67 0.62 0.61 0.50 0.45 0.39 0.33 0.31 0.30 0.34 0.41 0.39 0.45
0.96 1.07 1.12 1.08 0.95 0.61 0.32 0.09 0.13 0.30 0.53 0.38 0.24 0.27 0.28 0.38 0.36 0.28 0.45 0.36 0.69 0.93 0.80 0.66 0.73 0.71 0.73 0.94 0.71 0.72 0.81 0.64 0.64 0.68 0.70 0.67 0.68 0.71 0.62 0.64 0.59 0.53 0.48 0.47 0.43 0.43 0.42 0.35 0.32 0.34 0.34 0.37 0.46 0.46
0.85 1.14 1.04 0.81 0.57 0.46 0.25 0.23 0.13 0.14 0.21 0.39 0.55 0.46 0.30 0.26 0.16 0.22 0.38 0.47 0.73 0.53 0.42 0.56 0.47 0.47 0.46 0.45 0.51 0.62 0.77 0.54 0.50 0.54 0.58 0.42 0.36 0.45 0.40 0.43 0.42 0.45 0.48 0.43 0.35 0.39 0.39 0.44 0.44 0.41 0.40 0.43 0.46 0.46
0.98 0.64 0.57 0.53 0.37 0.30 0.19 0.17 0.15 0.12 0.12 0.11 0.31 0.47 0.55 0.46 0.54 0.48 0.34 0.58 0.50 0.46 0.47 0.41 0.31 0.33 0.43 0.55 0.60 0.56 0.44 0.31 0.31 0.33 0.42 0.31 0.33 0.37 0.32 0.32 0.36 0.42 0.42 0.38 0.35 0.39 0.46 0.46 0.45 0.41 0.40 0.42 0.43 0.44
0.74 0.29 0.26 0.23 0.20 0.15 0.12 0.13 0.17 0.17 0.13 0.13 0.23 0.27 0.32 0.49 0.43 0.42 0.44 0.64 0.57 0.54 0.59 0.59 0.49 0.35 0.33 0.34 0.39 0.36 0.28 0.23 0.19 0.25 0.29 0.25 0.29 0.36 0.35 0.32 0.38 0.45 0.34 0.48 0.54 0.57 0.52 0.45 0.47 0.42 0.40 0.42 0.46 0.47
0.46 0.26 0.11 0.10 0.24 0.33 0.27 0.18 0.19 0.25 0.35 0.40 0.33 0.25 0.44 0.56 0.50 0.48 0.59 0.51 0.53 0.61 0.56 0.54 0.39 0.33 0.32 0.34 0.35 0.28 0.17 0.11 0.15 0.23 0.27 0.22 0.23 0.27 0.35 0.47 0.48 0.53 0.41 0.44 0.53 0.57 0.52 0.50 0.50 0.46 0.47 0.49 0.47 0.49
0.23 0.14 0.19 0.21 0.28 0.33 0.44 0.39 0.37 0.35 0.38 0.33 0.38 0.40 0.54 0.52 0.59 0.55 0.54 0.51 0.39 0.29 0.22 0.20 0.20 0.20 0.22 0.24 0.24 0.20 0.20 0.17 0.17 0.22 0.24 0.28 0.23 0.26 0.28 0.29 0.29 0.25 0.25 0.31 0.32 0.32 0.36 0.45 0.52 0.55 0.56 0.51 0.49 0.46
0.26 0.18 0.20 0.20 0.20 0.19 0.28 0.35 0.45 0.42 0.38 0.36 0.42 0.38 0.33 0.40 0.66 0.60 0.54 0.37 0.30 0.24 0.25 0.23 0.31 0.22 0.21 0.27 0.23 0.17 0.21 0.24 0.31 0.37 0.42 0.54 0.47 0.43 0.26 0.21 0.21 0.21 0.22 0.26 0.29 0.32 0.33 0.40 0.44 0.48 0.59 0.62 0.61 0.65
0.12 0.10 0.21 0.22 0.20 0.24 0.36 0.26 0.33 0.28 0.20 0.23 0.30 0.31 0.28 0.51 0.72 0.56 0.48 0.38 0.36 0.39 0.42 0.35 0.33 0.27 0.26 0.23 0.31 0.30 0.37 0.32 0.31 0.40 0.45 0.45 0.41 0.37 0.25 0.20 0.19 0.20 0.19 0.20 0.24 0.33 0.38 0.38 0.39 0.42 0.45 0.53 0.62 0.69
0.17 0.19 0.21 0.20 0.32 0.41 0.39 0.28 0.30 0.23 0.24 0.24 0.26 0.27 0.38 0.52 0.55 0.39 0.36 0.48 0.35 0.32 0.30 0.30 0.31 0.31 0.31 0.33 0.38 0.41 0.55 0.45 0.33 0.35 0.38 0.39 0.34 0.27 0.23 0.20 0.20 0.18 0.17 0.17 0.19 0.24 0.28 0.31 0.37 0.42 0.43 0.47 0.51 0.54
0.28 0.37 0.38 0.32 0.45 0.38 0.35 0.46 0.43 0.48 0.42 0.40 0.39 0.28 0.40 0.36 0.34 0.44 0.37 0.39 0.43 0.39 0.39 0.37 0.38 0.44 0.44 0.51 0.50 0.51 0.51 0.45 0.31 0.29 0.28 0.28 0.27 0.24 0.19 0.15 0.18 0.20 0.20 0.19 0.20 0.23 0.23 0.27 0.34 0.33 0.35 0.32 0.32 0.32
0.35 0.35 0.41 0.49 0.49 0.47 0.43 0.48 0.43 0.41 0.42 0.40 0.44 0.47 0.48 0.41 0.43 0.57 0.43 0.45 0.68 0.67 0.54 0.52 0.55 0.52 0.52 0.45 0.39 0.42 0.43 0.40 0.38 0.35 0.33 0.28 0.22 0.20 0.15 0.15 0.16 0.18 0.19 0.21 0.25 0.24 0.23 0.21 0.22 0.22 0.20 0.19 0.19 0.16